World > North America > United States > Ohio

Hollansburg, Ohio Regional Weather

Lat: 40.00N, Lon: 84.79W
Wx Zone: OHZ042Web Search
Hollansburg Weather Warning NWS WEATHER ALERT FOR THE HOLLANSBURG, OH AREA - HARD FROST ADVISORY Issued: 406 PM EDT Sun May 9 2021 Hollansburg Weather Warning  

Helpful Tip: Abbreviated, 7 Day, 14 Day Forecasts. There is a weather forecast for every taste.

Feedback


°F Click to change Hollansburg hourly weather to Imperial units.Click to change Hollansburg hourly weather to Metric units. °C
Hollansburg Weather Map
UTC Time: 5/9/2021, 22:50
Your Time:

Hollansburg, OH Regional Weather

Expires:202105092300;;861067
ASUS41 KCLE 092212
RWRCLE
OHIO REGIONAL WEATHER ROUNDUP
NATIONAL WEATHER SERVICE WILMINGTON, OH
600 PM EDT SUN MAY 09 2021

NOTE: "FAIR" INDICATES FEW OR NO CLOUDS BELOW 12,000 FEET WITH NO
SIGNIFICANT WEATHER AND/OR OBSTRUCTIONS TO VISIBILITY.


OHZ042-051>053-060>062-070>072-077>081-092300-
  SOUTHWEST OHIO
  
CITY           SKY/WX    TMP DP  RH WIND       PRES   REMARKS
CINC-COVINGTON CLOUDY    51  48  89 N21       29.76R                  
CINC-LUNKEN    CLOUDY    53  51  93 N10G21    29.75R                  
HAMILTON       CLOUDY    48  45  89 NW9G17    29.78R                  
DAYTON         LGT RAIN  43  37  79 N18       29.79R                  
WRIGHT-PAT AFB CLOUDY    45  39  81 N16G23    29.77R                  
DAYTON GENERAL CLOUDY    46  43  89 N14       29.75R                  
WILMINGTON     CLOUDY    50  47  89 N18       29.72R                  
$$


SKY/WX - Weather  TMP - Temperature  DP - Dew Point  RH - Relative Humidity
WIND - Wind Direction/Speed PRES - Barometric Pressure VSB - Visibility
WCI - Wind Chill Index E13G22 Wind - East Wind 13 mph/Gusts of 22 mph